StationID,Date,MaxTemp,MinTemp,Precipitation,Snowfall,SnowDepth
"USC00503163","1990-05-01",48.92,41.00,0.00,0.00,0.00
"USC00503163","1990-05-02",48.92,35.96,0.00,0.00,0.00
"USC00503163","1990-05-03",51.98,35.96,0.00,0.00,0.00
"USC00503163","1990-05-04",48.92,33.08,0.00,0.00,0.00
"USC00503163","1990-05-05",48.92,33.08,0.00,0.00,0.00
"USC00503163","1990-05-06",55.94,35.06,0.00,0.00,0.00
"USC00503163","1990-05-07",59.00,39.92,3.00,0.00,0.00
"USC00503163","1990-05-08",51.98,37.04,0.00,0.00,0.00
"USC00503163","1990-05-09",55.94,41.00,0.00,0.00,0.00
"USC00503163","1990-05-10",51.98,42.98,18.00,0.00,0.00
"USC00503163","1990-05-11",53.06,41.00,56.00,0.00,0.00
"USC00503163","1990-05-12",51.98,37.94,3.00,0.00,0.00
"USC00503163","1990-05-13",55.04,41.00,0.00,0.00,0.00
"USC00503163","1990-05-14",53.96,41.00,20.00,0.00,0.00
"USC00503163","1990-05-15",51.98,42.08,0.00,0.00,0.00
"USC00503163","1990-05-16",60.08,44.06,0.00,0.00,0.00
"USC00503163","1990-05-17",64.04,46.94,0.00,0.00,0.00
"USC00503163","1990-05-18",60.08,44.96,0.00,0.00,0.00
"USC00503163","1990-05-19",55.04,44.96,0.00,0.00,0.00
"USC00503163","1990-05-20",64.94,41.00,0.00,0.00,0.00
"USC00503163","1990-05-21",60.98,35.06,127.00,0.00,0.00
"USC00503163","1990-05-22",46.04,33.98,3.00,0.00,0.00
"USC00503163","1990-05-23",55.04,33.98,0.00,0.00,0.00
"USC00503163","1990-05-24",55.04,37.94,0.00,0.00,0.00
"USC00503163","1990-05-25",60.08,37.04,0.00,0.00,0.00
"USC00503163","1990-05-26",66.02,44.96,0.00,0.00,0.00
"USC00503163","1990-05-27",66.92,46.04,0.00,0.00,0.00
"USC00503163","1990-05-28",64.04,46.04,0.00,0.00,0.00
"USC00503163","1990-05-29",66.02,46.04,3.00,0.00,0.00
"USC00503163","1990-05-30",64.04,46.04,0.00,0.00,0.00
"USC00503163","1990-05-31",66.92,44.96,0.00,0.00,0.00
"USC00503163","1990-06-01",64.94,44.96,20.00,0.00,0.00
"USC00503163","1990-06-02",,,0.00,0.00,0.00
"USC00503163","1990-06-03",62.96,46.04,0.00,0.00,0.00
"USC00503163","1990-06-04",71.96,48.92,114.00,0.00,0.00
"USC00503163","1990-06-05",71.96,51.98,0.00,0.00,0.00
"USC00503163","1990-06-06",75.02,51.08,5.00,0.00,0.00
"USC00503163","1990-06-07",73.04,50.00,0.00,0.00,0.00
"USC00503163","1990-06-08",71.06,46.04,0.00,0.00,0.00
"USC00503163","1990-06-09",60.98,46.94,0.00,0.00,0.00
"USC00503163","1990-06-10",62.96,51.08,0.00,0.00,0.00
"USC00503163","1990-06-11",62.96,48.02,0.00,0.00,0.00
"USC00503163","1990-06-12",64.04,44.06,0.00,0.00,0.00
"USC00503163","1990-06-13",66.92,48.92,13.00,0.00,0.00
"USC00503163","1990-06-14",66.92,46.94,51.00,0.00,0.00
"USC00503163","1990-06-15",60.08,44.96,33.00,0.00,0.00
"USC00503163","1990-06-16",60.08,46.04,13.00,0.00,0.00
"USC00503163","1990-06-17",60.98,44.06,10.00,0.00,0.00
"USC00503163","1990-06-18",57.02,46.04,8.00,0.00,0.00
"USC00503163","1990-06-19",59.00,46.04,5.00,0.00,0.00
"USC00503163","1990-06-20",59.00,44.06,0.00,0.00,0.00
"USC00503163","1990-06-21",62.06,48.92,3.00,0.00,0.00
"USC00503163","1990-06-22",62.96,44.96,5.00,0.00,0.00
"USC00503163","1990-06-23",57.92,46.94,0.00,0.00,0.00
"USC00503163","1990-06-24",62.06,51.08,53.00,0.00,0.00
"USC00503163","1990-06-25",66.92,46.94,0.00,0.00,0.00
"USC00503163","1990-06-26",66.92,48.02,0.00,0.00,0.00
"USC00503163","1990-06-27",57.92,48.92,0.00,0.00,0.00
"USC00503163","1990-06-28",69.98,51.08,0.00,0.00,0.00
"USC00503163","1990-06-29",77.00,55.94,0.00,0.00,0.00
"USC00503163","1990-06-30",73.04,50.00,0.00,0.00,0.00
"USC00503163","1990-07-01",77.00,48.92,0.00,0.00,0.00
"USC00503163","1990-07-02",73.04,50.00,0.00,0.00,0.00
"USC00503163","1990-07-03",64.94,48.02,0.00,0.00,0.00
"USC00503163","1990-07-04",69.98,50.00,0.00,0.00,0.00
"USC00503163","1990-07-05",77.00,48.92,0.00,0.00,0.00
"USC00503163","1990-07-06",64.94,48.92,0.00,0.00,0.00
"USC00503163","1990-07-07",60.98,44.96,0.00,0.00,0.00
"USC00503163","1990-07-08",53.96,42.98,10.00,0.00,0.00
"USC00503163","1990-07-09",64.94,44.96,0.00,0.00,0.00
"USC00503163","1990-07-10",64.04,48.92,0.00,0.00,0.00
"USC00503163","1990-07-11",64.94,50.00,0.00,0.00,0.00
"USC00503163","1990-07-12",64.94,46.94,0.00,0.00,0.00
"USC00503163","1990-07-13",66.02,48.02,0.00,0.00,0.00
"USC00503163","1990-07-14",66.92,46.94,0.00,0.00,0.00
"USC00503163","1990-07-15",64.04,50.00,0.00,0.00,0.00
"USC00503163","1990-07-16",69.08,48.02,0.00,0.00,0.00
"USC00503163","1990-07-17",73.04,50.00,0.00,0.00,0.00
"USC00503163","1990-07-18",73.94,51.08,0.00,0.00,0.00
"USC00503163","1990-07-19",80.06,55.04,0.00,0.00,0.00
"USC00503163","1990-07-20",78.08,48.92,0.00,0.00,0.00
"USC00503163","1990-07-21",66.92,48.92,0.00,0.00,0.00
"USC00503163","1990-07-22",73.94,50.00,0.00,0.00,0.00
"USC00503163","1990-07-23",77.00,46.94,0.00,0.00,0.00
"USC00503163","1990-07-24",66.92,48.02,0.00,0.00,0.00
"USC00503163","1990-07-25",62.06,48.02,5.00,0.00,0.00
"USC00503163","1990-07-26",60.98,48.02,8.00,0.00,0.00
"USC00503163","1990-07-27",60.98,50.00,0.00,0.00,0.00
"USC00503163","1990-07-28",57.92,48.02,8.00,0.00,0.00
"USC00503163","1990-07-29",66.92,48.02,0.00,0.00,0.00
"USC00503163","1990-07-30",66.92,46.04,5.00,0.00,0.00
"USC00503163","1990-07-31",57.92,46.04,18.00,0.00,0.00
"USC00503163","1990-08-01",64.04,48.02,0.00,0.00,0.00
"USC00503163","1990-08-02",64.94,48.92,0.00,0.00,0.00
"USC00503163","1990-08-03",66.92,48.92,0.00,0.00,0.00
"USC00503163","1990-08-04",71.06,51.08,33.00,0.00,0.00
"USC00503163","1990-08-05",62.06,41.00,0.00,0.00,0.00
"USC00503163","1990-08-06",66.02,48.02,0.00,0.00,0.00
"USC00503163","1990-08-07",64.04,51.08,0.00,0.00,0.00
"USC00503163","1990-08-08",64.94,48.02,0.00,0.00,0.00
"USC00503163","1990-08-09",64.94,46.04,0.00,0.00,0.00
"USC00503163","1990-08-10",64.04,46.94,13.00,0.00,0.00
"USC00503163","1990-08-11",57.02,46.94,94.00,0.00,0.00
"USC00503163","1990-08-12",78.08,51.98,0.00,0.00,0.00
"USC00503163","1990-08-13",75.92,53.96,0.00,0.00,0.00
"USC00503163","1990-08-14",75.92,55.04,0.00,0.00,0.00
"USC00503163","1990-08-15",77.00,55.94,0.00,0.00,0.00
"USC00503163","1990-08-16",68.00,48.02,0.00,0.00,0.00
"USC00503163","1990-08-17",69.08,53.06,3.00,0.00,0.00
"USC00503163","1990-08-18",66.02,48.92,8.00,0.00,0.00
"USC00503163","1990-08-19",64.94,48.92,15.00,0.00,0.00
"USC00503163","1990-08-20",66.02,48.92,51.00,0.00,0.00
"USC00503163","1990-08-21",55.94,48.92,0.00,0.00,0.00
"USC00503163","1990-08-22",62.96,48.92,0.00,0.00,0.00
"USC00503163","1990-08-23",64.94,50.00,36.00,0.00,0.00
"USC00503163","1990-08-24",57.92,48.02,3.00,0.00,0.00
"USC00503163","1990-08-25",66.92,48.02,0.00,0.00,0.00
"USC00503163","1990-08-26",66.02,46.94,84.00,0.00,0.00
"USC00503163","1990-08-27",75.92,48.02,0.00,0.00,0.00
"USC00503163","1990-08-28",77.00,41.00,71.00,0.00,0.00
"USC00503163","1990-08-29",60.08,39.92,51.00,0.00,0.00
"USC00503163","1990-08-30",62.96,41.00,0.00,0.00,0.00
"USC00503163","1990-08-31",60.98,41.00,0.00,0.00,0.00
"USC00503163","1990-09-01",62.06,42.08,0.00,0.00,0.00
"USC00503163","1990-09-02",64.94,44.06,0.00,0.00,0.00
"USC00503163","1990-09-03",62.96,46.94,0.00,0.00,0.00
"USC00503163","1990-09-04",60.98,48.92,191.00,0.00,0.00
"USC00503163","1990-09-05",57.92,48.02,15.00,0.00,0.00
"USC00503163","1990-09-06",60.08,48.02,0.00,0.00,0.00
"USC00503163","1990-09-07",60.98,39.92,0.00,0.00,0.00
"USC00503163","1990-09-08",59.00,39.92,0.00,0.00,0.00
"USC00503163","1990-09-09",48.92,42.98,244.00,0.00,0.00
"USC00503163","1990-09-10",53.06,42.98,46.00,0.00,0.00
"USC00503163","1990-09-11",51.08,41.00,25.00,0.00,0.00
"USC00503163","1990-09-12",59.00,42.08,79.00,0.00,0.00
"USC00503163","1990-09-13",62.06,48.92,13.00,0.00,0.00
"USC00503163","1990-09-14",60.08,46.04,48.00,0.00,0.00
"USC00503163","1990-09-15",48.92,44.96,38.00,0.00,0.00
"USC00503163","1990-09-16",53.96,39.02,0.00,0.00,0.00
"USC00503163","1990-09-17",50.00,42.08,0.00,0.00,0.00
"USC00503163","1990-09-18",55.94,42.08,36.00,0.00,0.00
"USC00503163","1990-09-19",51.08,39.92,0.00,0.00,0.00
"USC00503163","1990-09-20",57.92,42.08,0.00,0.00,0.00
"USC00503163","1990-09-21",57.02,37.94,0.00,0.00,0.00
"USC00503163","1990-09-22",55.94,41.00,48.00,0.00,0.00
"USC00503163","1990-09-23",41.00,33.98,234.00,0.00,0.00
"USC00503163","1990-09-24",46.04,37.04,0.00,0.00,0.00
"USC00503163","1990-09-25",50.00,35.06,0.00,0.00,0.00
"USC00503163","1990-09-26",48.92,35.06,0.00,0.00,0.00
"USC00503163","1990-09-27",50.00,33.98,0.00,0.00,0.00
"USC00503163","1990-09-28",53.96,33.08,0.00,0.00,0.00
"USC00503163","1990-09-29",48.92,33.98,0.00,0.00,0.00
"USC00503163","1990-09-30",48.92,37.04,94.00,0.00,0.00
"USC00503163","1990-10-01",44.96,30.02,64.00,0.00,0.00
"USC00503163","1990-10-02",35.96,26.96,0.00,0.00,0.00
"USC00503163","1990-10-03",41.00,23.00,0.00,0.00,0.00
"USC00503163","1990-10-04",42.98,23.00,0.00,0.00,0.00
"USC00503163","1990-10-05",44.06,28.04,25.00,0.00,0.00
"USC00503163","1990-10-06",44.06,35.06,0.00,0.00,0.00
"USC00503163","1990-10-07",44.96,32.00,0.00,0.00,0.00
"USC00503163","1990-10-08",39.92,33.08,15.00,0.00,0.00
"USC00503163","1990-10-09",44.06,30.02,0.00,0.00,0.00
"USC00503163","1990-10-10",46.04,28.94,13.00,0.00,0.00
"USC00503163","1990-10-11",51.08,33.98,0.00,0.00,0.00
"USC00503163","1990-10-12",44.96,32.00,58.00,0.00,0.00
"USC00503163","1990-10-13",39.92,26.06,0.00,51.00,
"USC00503163","1990-10-14",39.92,24.98,58.00,0.00,0.00
"USC00503163","1990-10-15",33.08,15.98,0.00,0.00,0.00
"USC00503163","1990-10-16",33.08,12.92,0.00,0.00,0.00
"USC00503163","1990-10-17",28.94,12.02,0.00,0.00,0.00
"USC00503163","1990-10-18",26.96,12.02,0.00,0.00,0.00
"USC00503163","1990-10-19",44.96,10.94,,0.00,0.00
"USC00503163","1990-10-20",39.02,28.04,0.00,0.00,0.00
"USC00503163","1990-10-21",35.96,26.96,0.00,0.00,0.00
"USC00503163","1990-10-22",35.96,23.00,0.00,0.00,0.00
"USC00503163","1990-10-23",35.06,26.06,10.00,0.00,0.00
"USC00503163","1990-10-24",39.92,28.94,0.00,0.00,0.00
"USC00503163","1990-10-25",42.98,23.00,0.00,0.00,0.00
"USC00503163","1990-10-26",33.98,21.02,0.00,0.00,0.00
"USC00503163","1990-10-27",30.92,21.92,0.00,0.00,0.00
"USC00503163","1990-10-28",33.08,19.04,0.00,0.00,0.00
"USC00503163","1990-10-29",30.02,21.92,0.00,0.00,0.00
"USC00503163","1990-10-30",32.00,26.96,8.00,0.00,0.00
"USC00503163","1990-10-31",32.00,19.04,0.00,0.00,0.00
"USC00503163","1990-11-01",26.06,15.08,0.00,0.00,0.00
"USC00503163","1990-11-02",24.08,15.08,0.00,0.00,0.00
"USC00503163","1990-11-03",28.04,14.00,0.00,0.00,0.00
"USC00503163","1990-11-04",30.02,15.08,0.00,0.00,0.00
"USC00503163","1990-11-05",33.08,17.96,0.00,0.00,0.00
"USC00503163","1990-11-06",33.98,19.94,46.00,102.00,102.00
"USC00503163","1990-11-07",19.94,-0.94,0.00,0.00,102.00
"USC00503163","1990-11-08",10.94,-7.06,0.00,0.00,76.00
"USC00503163","1990-11-09",3.92,-14.98,0.00,0.00,76.00
"USC00503163","1990-11-10",-5.98,-11.02,0.00,0.00,76.00
"USC00503163","1990-11-11",3.02,-7.06,0.00,0.00,76.00
"USC00503163","1990-11-12",5.00,-7.96,0.00,0.00,51.00
"USC00503163","1990-11-13",6.08,-7.06,0.00,0.00,51.00
"USC00503163","1990-11-14",17.96,5.00,0.00,0.00,51.00
"USC00503163","1990-11-15",24.08,8.06,0.00,0.00,51.00
"USC00503163","1990-11-16",30.02,14.00,0.00,0.00,
"USC00503163","1990-11-17",28.94,19.94,74.00,89.00,152.00
"USC00503163","1990-11-18",28.04,19.04,79.00,64.00,203.00
"USC00503163","1990-11-19",28.94,17.96,0.00,0.00,178.00
"USC00503163","1990-11-20",26.06,8.96,5.00,0.00,203.00
"USC00503163","1990-11-21",15.08,-5.08,0.00,0.00,203.00
"USC00503163","1990-11-22",6.08,-2.92,0.00,0.00,178.00
"USC00503163","1990-11-23",6.08,-4.00,0.00,0.00,178.00
"USC00503163","1990-11-24",1.94,-5.98,0.00,0.00,178.00
"USC00503163","1990-11-25",8.06,-4.00,0.00,203.00,356.00
"USC00503163","1990-11-26",26.96,5.00,81.00,13.00,356.00
"USC00503163","1990-11-27",19.04,-5.08,0.00,0.00,330.00
"USC00503163","1990-11-28",5.00,-9.94,0.00,0.00,279.00
"USC00503163","1990-11-29",1.04,-16.06,0.00,0.00,254.00
"USC00503163","1990-11-30",-5.08,-18.04,0.00,0.00,229.00
"USC00503163","1990-12-01",-7.06,-18.04,0.00,0.00,229.00
"USC00503163","1990-12-02",-2.02,-11.02,0.00,0.00,229.00
"USC00503163","1990-12-03",12.92,-2.02,0.00,0.00,229.00
"USC00503163","1990-12-04",15.98,-4.00,0.00,0.00,229.00
"USC00503163","1990-12-05",8.06,-5.98,0.00,0.00,229.00
"USC00503163","1990-12-06",28.04,6.98,38.00,76.00,305.00
"USC00503163","1990-12-07",30.02,19.94,0.00,0.00,305.00
"USC00503163","1990-12-08",24.98,21.02,0.00,0.00,305.00
"USC00503163","1990-12-09",24.98,15.98,81.00,178.00,457.00
"USC00503163","1990-12-10",17.96,6.98,15.00,25.00,432.00
"USC00503163","1990-12-11",17.96,8.06,0.00,0.00,432.00
"USC00503163","1990-12-12",32.00,15.08,10.00,25.00,432.00
"USC00503163","1990-12-13",37.04,17.96,25.00,25.00,457.00
"USC00503163","1990-12-14",24.98,-2.92,0.00,0.00,432.00
"USC00503163","1990-12-15",1.94,-7.96,0.00,0.00,432.00
"USC00503163","1990-12-16",3.92,-5.08,0.00,0.00,432.00
"USC00503163","1990-12-17",-5.08,-7.06,0.00,0.00,406.00
"USC00503163","1990-12-18",3.02,-7.96,0.00,0.00,381.00
"USC00503163","1990-12-19",14.00,-2.92,13.00,25.00,406.00
"USC00503163","1990-12-20",24.98,12.92,0.00,0.00,406.00
"USC00503163","1990-12-21",33.98,24.08,20.00,13.00,406.00
"USC00503163","1990-12-22",35.06,17.96,0.00,0.00,406.00
"USC00503163","1990-12-23",39.92,23.00,33.00,15.00,330.00
"USC00503163","1990-12-24",28.04,17.96,8.00,0.00,330.00
"USC00503163","1990-12-25",35.06,23.00,5.00,0.00,305.00
"USC00503163","1990-12-26",35.06,21.02,180.00,102.00,457.00
"USC00503163","1990-12-27",21.02,3.02,0.00,0.00,406.00
"USC00503163","1990-12-28",15.98,6.98,0.00,0.00,381.00
"USC00503163","1990-12-29",28.94,15.98,38.00,13.00,381.00
"USC00503163","1990-12-30",23.00,8.06,0.00,0.00,356.00
"USC00503163","1990-12-31",12.02,-0.94,0.00,0.00,381.00
"USC00503163","1991-01-01",12.02,-4.00,0.00,0.00,406.00
"USC00503163","1991-01-02",12.02,-4.00,0.00,0.00,406.00
"USC00503163","1991-01-03",12.92,1.94,0.00,0.00,381.00
"USC00503163","1991-01-04",15.08,6.98,0.00,0.00,381.00
"USC00503163","1991-01-05",17.06,6.98,0.00,0.00,356.00
"USC00503163","1991-01-06",15.98,6.98,0.00,0.00,356.00
"USC00503163","1991-01-07",10.04,3.02,0.00,0.00,356.00
"USC00503163","1991-01-08",8.06,1.94,0.00,0.00,356.00
"USC00503163","1991-01-09",8.06,1.04,0.00,0.00,330.00
"USC00503163","1991-01-10",19.04,8.06,30.00,127.00,457.00
"USC00503163","1991-01-11",12.92,8.96,13.00,25.00,483.00
"USC00503163","1991-01-12",12.92,6.08,0.00,0.00,483.00
"USC00503163","1991-01-13",21.92,6.08,0.00,0.00,457.00
"USC00503163","1991-01-14",21.92,-0.94,0.00,0.00,457.00
"USC00503163","1991-01-15",1.94,-16.96,0.00,0.00,457.00
"USC00503163","1991-01-16",10.04,-11.92,0.00,0.00,457.00
"USC00503163","1991-01-17",26.96,-11.92,0.00,0.00,457.00
"USC00503163","1991-01-18",33.98,12.92,5.00,25.00,483.00
"USC00503163","1991-01-19",44.96,15.08,0.00,0.00,457.00
"USC00503163","1991-01-20",46.94,33.08,18.00,0.00,356.00
"USC00503163","1991-01-21",42.98,28.94,0.00,0.00,330.00
"USC00503163","1991-01-22",44.06,35.06,0.00,0.00,254.00
"USC00503163","1991-01-23",44.06,35.96,0.00,0.00,203.00
"USC00503163","1991-01-24",37.94,30.92,0.00,0.00,203.00
"USC00503163","1991-01-25",39.02,21.92,0.00,0.00,178.00
"USC00503163","1991-01-26",26.96,19.04,0.00,0.00,178.00
"USC00503163","1991-01-27",21.02,15.08,0.00,0.00,178.00
"USC00503163","1991-01-28",21.02,12.92,0.00,0.00,178.00
"USC00503163","1991-01-29",28.94,10.04,0.00,0.00,152.00
"USC00503163","1991-01-30",17.06,-5.08,0.00,0.00,152.00
"USC00503163","1991-01-31",3.92,-9.04,0.00,0.00,152.00
"USC00503163","1991-02-01",5.00,-7.96,0.00,0.00,102.00
"USC00503163","1991-02-02",6.08,-0.04,5.00,0.00,102.00
"USC00503163","1991-02-03",12.92,3.02,33.00,43.00,127.00
"USC00503163","1991-02-04",19.94,5.00,0.00,0.00,127.00
"USC00503163","1991-02-05",14.00,1.04,0.00,0.00,127.00
"USC00503163","1991-02-06",12.92,1.94,13.00,76.00,203.00
"USC00503163","1991-02-07",10.04,-7.96,0.00,0.00,203.00
"USC00503163","1991-02-08",3.92,-14.98,0.00,0.00,203.00
"USC00503163","1991-02-09",14.00,-9.04,0.00,0.00,203.00
"USC00503163","1991-02-10",30.92,14.00,0.00,0.00,203.00
"USC00503163","1991-02-11",37.04,14.00,0.00,0.00,178.00
"USC00503163","1991-02-12",41.00,28.04,0.00,0.00,127.00
"USC00503163","1991-02-13",35.06,21.02,0.00,0.00,127.00
"USC00503163","1991-02-14",28.94,15.08,0.00,0.00,127.00
"USC00503163","1991-02-15",35.06,23.00,0.00,0.00,127.00
"USC00503163","1991-02-16",35.96,24.98,0.00,0.00,102.00
"USC00503163","1991-02-17",39.02,26.96,8.00,13.00,127.00
"USC00503163","1991-02-18",39.02,17.96,38.00,114.00,254.00
"USC00503163","1991-02-19",17.96,8.06,58.00,203.00,356.00
"USC00503163","1991-02-20",14.00,1.04,0.00,0.00,356.00
"USC00503163","1991-02-21",15.08,1.94,0.00,0.00,356.00
"USC00503163","1991-02-22",15.08,1.04,0.00,0.00,330.00
"USC00503163","1991-02-23",41.00,1.94,0.00,0.00,305.00
"USC00503163","1991-02-24",46.94,24.08,0.00,0.00,178.00
"USC00503163","1991-02-25",42.08,26.96,18.00,0.00,152.00
"USC00503163","1991-02-26",42.98,24.08,0.00,0.00,152.00
"USC00503163","1991-02-27",42.08,21.02,0.00,0.00,127.00
"USC00503163","1991-02-28",44.96,26.06,0.00,0.00,102.00
"USC00503163","1991-03-01",50.00,26.06,0.00,0.00,76.00
"USC00503163","1991-03-02",42.08,23.00,0.00,0.00,51.00
"USC00503163","1991-03-03",37.94,21.92,0.00,0.00,51.00
"USC00503163","1991-03-04",39.02,19.04,0.00,0.00,51.00
"USC00503163","1991-03-05",30.92,17.96,28.00,25.00,76.00
"USC00503163","1991-03-06",39.02,21.92,8.00,0.00,76.00
"USC00503163","1991-03-07",41.00,32.00,0.00,0.00,76.00
"USC00503163","1991-03-08",39.92,24.98,5.00,0.00,76.00
"USC00503163","1991-03-09",32.00,6.08,0.00,0.00,76.00
"USC00503163","1991-03-10",24.98,3.92,0.00,0.00,76.00
"USC00503163","1991-03-11",24.98,3.92,0.00,0.00,76.00
"USC00503163","1991-03-12",28.04,8.96,0.00,0.00,76.00
"USC00503163","1991-03-13",19.94,8.96,15.00,13.00,76.00
"USC00503163","1991-03-14",33.98,19.04,0.00,0.00,76.00
"USC00503163","1991-03-15",39.02,24.08,25.00,51.00,102.00
"USC00503163","1991-03-16",24.98,5.00,41.00,76.00,102.00
"USC00503163","1991-03-17",30.92,8.06,8.00,25.00,127.00
"USC00503163","1991-03-18",30.92,15.08,0.00,0.00,127.00
"USC00503163","1991-03-19",28.94,10.94,0.00,0.00,127.00
"USC00503163","1991-03-20",26.06,8.96,0.00,0.00,102.00
"USC00503163","1991-03-21",28.94,6.98,0.00,0.00,102.00
"USC00503163","1991-03-22",33.08,12.02,0.00,0.00,102.00
"USC00503163","1991-03-23",33.08,14.00,0.00,0.00,76.00
"USC00503163","1991-03-24",35.06,23.00,0.00,0.00,51.00
"USC00503163","1991-03-25",35.06,23.00,0.00,0.00,51.00
"USC00503163","1991-03-26",41.00,32.00,0.00,0.00,51.00
"USC00503163","1991-03-27",44.06,33.08,3.00,0.00,25.00
"USC00503163","1991-03-28",37.04,30.02,25.00,25.00,51.00
"USC00503163","1991-03-29",39.02,28.04,8.00,0.00,51.00
"USC00503163","1991-03-30",35.06,21.92,25.00,25.00,51.00
"USC00503163","1991-03-31",39.02,17.06,0.00,0.00,25.00
"USC00503163","1991-04-01",37.94,17.06,0.00,0.00,25.00
"USC00503163","1991-04-02",42.98,17.96,0.00,0.00,25.00
"USC00503163","1991-04-03",46.04,23.00,0.00,0.00,25.00
"USC00503163","1991-04-04",44.06,24.08,0.00,0.00,25.00
"USC00503163","1991-04-05",48.92,26.96,0.00,0.00,25.00
"USC00503163","1991-04-06",48.02,28.04,0.00,0.00,25.00
"USC00503163","1991-04-07",44.96,28.04,0.00,0.00,25.00
"USC00503163","1991-04-08",46.04,28.04,0.00,0.00,25.00
"USC00503163","1991-04-09",41.00,28.04,0.00,0.00,25.00
"USC00503163","1991-04-10",42.08,30.92,0.00,0.00,0.00
"USC00503163","1991-04-11",44.96,24.08,0.00,0.00,0.00
"USC00503163","1991-04-12",44.06,23.00,0.00,0.00,0.00
"USC00503163","1991-04-13",42.98,24.98,0.00,0.00,0.00
"USC00503163","1991-04-14",44.06,30.02,0.00,0.00,0.00
"USC00503163","1991-04-15",46.04,33.08,0.00,0.00,0.00
"USC00503163","1991-04-16",44.96,33.08,0.00,0.00,0.00
"USC00503163","1991-04-17",44.06,28.04,0.00,0.00,0.00
"USC00503163","1991-04-18",44.06,30.92,0.00,0.00,0.00
"USC00503163","1991-04-19",44.96,33.08,0.00,0.00,0.00
"USC00503163","1991-04-20",46.94,35.06,0.00,0.00,0.00
"USC00503163","1991-04-21",44.96,30.92,0.00,0.00,0.00
"USC00503163","1991-04-22",44.96,30.92,0.00,0.00,0.00
"USC00503163","1991-04-23",48.92,32.00,0.00,0.00,0.00
"USC00503163","1991-04-24",46.04,33.08,0.00,0.00,0.00
"USC00503163","1991-04-25",51.98,35.06,0.00,0.00,0.00
"USC00503163","1991-04-26",50.00,37.04,0.00,0.00,0.00
"USC00503163","1991-04-27",50.00,32.00,0.00,0.00,0.00
"USC00503163","1991-04-28",48.02,30.02,0.00,0.00,0.00
"USC00503163","1991-04-29",50.00,33.08,0.00,0.00,0.00
"USC00503163","1991-04-30",51.98,33.08,0.00,0.00,0.00
"USC00503163","1991-05-01",50.00,32.00,13.00,0.00,0.00
"USC00503163","1991-05-02",53.06,35.06,0.00,0.00,0.00
"USC00503163","1991-05-03",44.06,35.06,0.00,0.00,0.00
"USC00503163","1991-05-04",53.96,35.06,0.00,0.00,0.00
"USC00503163","1991-05-05",55.04,33.08,0.00,0.00,0.00
"USC00503163","1991-05-06",55.04,33.98,0.00,0.00,0.00
"USC00503163","1991-05-07",59.00,37.04,0.00,0.00,0.00
"USC00503163","1991-05-08",53.06,32.00,0.00,0.00,0.00
"USC00503163","1991-05-09",55.94,33.08,0.00,0.00,0.00
"USC00503163","1991-05-10",51.08,33.98,0.00,0.00,0.00
"USC00503163","1991-05-11",48.92,33.98,0.00,0.00,0.00
"USC00503163","1991-05-12",48.02,33.98,0.00,0.00,0.00
"USC00503163","1991-05-13",51.98,33.98,0.00,0.00,0.00
"USC00503163","1991-05-14",55.94,33.98,0.00,0.00,0.00
"USC00503163","1991-05-15",53.96,37.04,0.00,0.00,0.00
"USC00503163","1991-05-16",55.04,37.94,0.00,0.00,0.00
"USC00503163","1991-05-17",55.04,32.00,0.00,0.00,0.00
"USC00503163","1991-05-18",55.94,37.94,0.00,0.00,0.00
"USC00503163","1991-05-19",48.02,37.04,0.00,0.00,0.00
"USC00503163","1991-05-20",53.96,35.96,15.00,0.00,0.00
"USC00503163","1991-05-21",64.04,37.04,0.00,0.00,0.00
"USC00503163","1991-05-22",66.92,37.94,0.00,0.00,0.00
"USC00503163","1991-05-23",68.00,42.08,0.00,0.00,0.00
"USC00503163","1991-05-24",69.08,44.06,0.00,0.00,0.00
"USC00503163","1991-05-25",68.00,42.98,0.00,0.00,0.00
"USC00503163","1991-05-26",69.08,39.92,0.00,0.00,0.00
"USC00503163","1991-05-27",55.04,41.00,0.00,0.00,0.00
"USC00503163","1991-05-28",48.92,37.94,0.00,0.00,0.00
"USC00503163","1991-05-29",51.98,41.00,3.00,0.00,0.00
"USC00503163","1991-05-30",55.94,37.94,0.00,0.00,0.00
"USC00503163","1991-05-31",55.94,39.92,0.00,0.00,0.00
"USC00503163","1991-06-01",57.92,42.08,0.00,0.00,0.00
"USC00503163","1991-06-02",59.00,41.00,0.00,0.00,0.00
"USC00503163","1991-06-03",60.08,39.92,0.00,0.00,0.00
"USC00503163","1991-06-04",59.00,41.00,0.00,0.00,0.00
"USC00503163","1991-06-05",59.00,42.08,0.00,0.00,0.00
"USC00503163","1991-06-06",62.06,42.08,0.00,0.00,0.00
"USC00503163","1991-06-07",55.04,39.92,10.00,0.00,0.00
"USC00503163","1991-06-08",57.92,37.04,0.00,0.00,0.00
"USC00503163","1991-06-09",57.92,42.98,0.00,0.00,0.00
"USC00503163","1991-06-10",62.06,37.94,0.00,0.00,0.00
"USC00503163","1991-06-11",66.02,41.00,0.00,0.00,0.00
"USC00503163","1991-06-12",66.92,44.96,0.00,0.00,0.00
"USC00503163","1991-06-13",71.06,44.06,0.00,0.00,0.00
"USC00503163","1991-06-14",66.92,39.92,0.00,0.00,0.00
"USC00503163","1991-06-15",66.92,42.98,0.00,0.00,0.00
"USC00503163","1991-06-16",68.00,41.00,0.00,0.00,0.00
"USC00503163","1991-06-17",68.00,44.96,0.00,0.00,0.00
"USC00503163","1991-06-18",60.98,46.04,0.00,0.00,0.00
"USC00503163","1991-06-19",57.92,46.04,8.00,0.00,0.00
"USC00503163","1991-06-20",73.04,46.94,0.00,0.00,0.00
"USC00503163","1991-06-21",78.08,51.08,0.00,0.00,0.00
"USC00503163","1991-06-22",73.04,46.94,0.00,0.00,0.00
"USC00503163","1991-06-23",64.04,42.08,0.00,0.00,0.00
"USC00503163","1991-06-24",69.08,50.00,13.00,0.00,0.00
"USC00503163","1991-06-25",62.96,50.00,0.00,0.00,0.00
"USC00503163","1991-06-26",71.06,48.02,0.00,0.00,0.00
"USC00503163","1991-06-27",71.96,48.92,15.00,0.00,0.00
"USC00503163","1991-06-28",68.00,50.00,33.00,0.00,0.00
"USC00503163","1991-06-29",62.96,51.98,5.00,0.00,0.00
"USC00503163","1991-06-30",69.98,55.04,0.00,0.00,0.00
"USC00503163","1991-07-01",69.98,55.04,0.00,0.00,0.00
"USC00503163","1991-07-02",64.04,51.08,36.00,0.00,0.00
"USC00503163","1991-07-03",64.94,51.98,56.00,0.00,0.00